星链-37645(STARLINK-37645)

导读

STARLINK-37645(NORAD编号69371)是美国太空探索技术公司(SpaceX)星链星座的低轨互联网卫星。该卫星运行于原星链常规的约550公里近地轨道,具备星链卫星通用的平板小型化设计,可提供低延迟宽带网络接入服务,支持视频通话、在线办公等应用场景。 根据SpaceX2026年轨道调整规划,该卫星属于计划降轨至480公里高度的批次,降轨后将进一步降低轨道碰撞风险,若出现故障可依托更大的大气阻力在数月内自然再入大气层烧毁,减少空间碎片隐患。目前该卫星在轨运行状态稳定,为星链全球网络覆盖提供支撑。

Basic Information
目录编号:
69371
目录名称:
STARLINK-37645
国际标识:
2026-123U
轨道中心:
EARTH
卫星名称:
星链-37645
卫星全名:
星链-37645(STARLINK-37645)
卫星状态:
在轨 (已飞行103 天)
发射日期:
2026-06-04 UTC
国别 :
美国 (US)
星等 :
--
This satellite is enrolled in the Space Conjunction Data Service (SCDS) and the current flight risk assessment level is: No High Risk
Orbit Information
数据来源 国际轨道数据
星历时间: 2026-09-15T11:05:25+0800
11小时前
查看轨道信息
半长轴: 6840.785km
偏心率: 0.000089
轨道倾角: 53.159°
近地点辐角 102.827°
升交点赤经 166.946°
平近点角 257.283°
近地点: 462.039km
远地点: 463.257km
周期: 93.847分钟
每日圈数: 15.344186
Detailed Information
固有亮度:
5
最大亮度:
2.5
卫星平台:
Starlink V1.0
覆盖范围:
全球
运营商:
太空探索技术公司
运营商所在国:
美国
制造商(研发单位):
太空探索技术公司
制造商所在国:
美国
使用方式:
暂无
Satellite Introduction
Starlink 计划是 SpaceX 推出的全球卫星互联网项目,通过发射低轨道卫星,为全球尤其是偏远地区提供高速、低延迟的互联网服务。自 2019 年起,Starlink 已部署数千颗卫星,旨在缩小全球数字鸿沟,推动互联网普及。该项目还为军事、航空等行业提供通信支持,带来广泛经济效益。
2D Orbit Map
3D Orbit Map
Orbit Altitude Analysis Chart
Orbit Inclination Analysis Chart
Orbit Comprehensive Analysis Chart
View Comprehensive Chart
Conjunction Data List
Event ID Objects TCA Miss Dist (km) Collision Risk Probability Collision Risk Index (CRI) Action
CDM_260916-201306-028406-937122
2026-09-16T
20:13:27+0000
0.710 km
远距离
5.027322E-5 中风险 0.69
CDM_260917-075606-028406-937121
2026-09-17T
07:56:54+0000
0.936 km
远距离
2.039119E-5 中风险 0.61
CDM_260916-201105-794106-937121
2026-09-16T
20:11:03+0000
0.926 km
远距离
1.592639E-5 中风险 0.59
CDM_260917-044605-794106-937121
2026-09-17T
04:46:55+0000
1.195 km
极远距离
6.613633E-6 低风险 0.51
CDM_260916-062606-261006-937122
EDISON-1 (62610)
2026-09-16T
06:26:45+0000
1.708 km
极远距离
4.445368E-6 低风险 0.48
CDM_260917-031305-794106-937121
2026-09-17T
03:13:07+0000
1.602 km
极远距离
2.563836E-6 低风险 0.43
CDM_260917-093006-028406-937121
2026-09-17T
09:30:42+0000
1.769 km
极远距离
2.503188E-6 低风险 0.43
CDM_260916-214405-794106-937121
2026-09-16T
21:44:51+0000
1.944 km
极远距离
1.517102E-6 低风险 0.39
CDM_260916-114705-719306-937121
2026-09-16T
11:47:54+0000
2.765 km
极远距离
1.483577E-6 低风险 0.38
CDM_260916-214706-028406-937122
2026-09-16T
21:47:15+0000
2.190 km
极远距离
1.476793E-6 低风险 0.38
Miss Distance Evolution Trend with All Objects Subscribe to Flight Safety Assessment
Collision Probability Evolution Trend with All Objects Subscribe to Flight Safety Assessment